SCOUT A R/B, 3137

Orbit data source: Space-Track

SCOUT A R/B, 3137 is space debris in LEO originally from a launch on Sat, 02 Mar 1968 UTC launched from the Air Force Western Test Range (AFWTR). Debris objects in space refer to the collection of defunct objects orbiting the Earth. Examples of debris include non-operational satellites, rocket bodies, and fragments generated from explosions, collisions, or faulty payload assembly.

Loading next visibility...
Identifier
3137, 1968-012B
Orbit
LEO
Country
Flag of USUS
Related business
Manufacturer
ABL
Mission
Spacecraft
Bus & Motor
ALTAIR, Unknown motor
Mass
33 kg wet, 33 kg dry
Launch date (UTC)
1968-03-02 (58 years ago)
Launch vehicle
Unknown
Launch site
Air Force Western Test Range (AFWTR)
Object type
Payload
Rocket body
Debris
Shape & HBR
Unknown
Radar Cross Section
Medium (>0.1 m² and <1 m²)

Expand to show TLE details & history
Last TLE update: 13 hours ago

TLE from 13 hours ago
0 SCOUT A R/B
1  3137U 68012B   26196.16569117  .00000085  00000-0  11636-3 0  9994
2  3137  90.0300 273.5767 0074684 351.8163   8.1764 13.50358933872565
Epoch: 2026-07-15T03:58Z
TLE epoch observation values (Epoch: 2026-07-15T03:58:35.717Z)
Latitude
0.00002°
Longitude
-79.09753°
Altitude
1,018.823 km
Speed
7.369 km/s
True Right ascension
18h 14m 18s
True Declination
0° 00' 00"
Sunlit
Object was in full shadow at epoch
Visualization orbit readout
Latitude
Unknown
Longitude
Unknown
Altitude
Unknown
Speed
Unknown
Apparent Right ascension
Unknown
Apparent Declination
Unknown
Sunlit
N/A
Visualization observer readout
Local Sidereal Time
05:04:07
Azimuth
Unknown
Elevation
Unknown
Doppler factor
Unknown
Orbital elements
Apogee altitude
1,123.598 km
Perigee altitude
1,012.377 km
Semi-major axis
7,446.124 km
Eccentricity
0.00747
Inclination
90.03°
RAAN
273.5767°
Arg. of periapsis
351.8163°
True anomaly
8.29925°
Mean anomaly
8.1764°
Eccentric anomaly
8.23771°
Mean motion
3.37791 °/min
Orbital period
106.57 mins
BSTAR
0.00011636
Loading maneuver chart data...
Computing Atmospheric mass density...
Loading historical data...
Loading historical data...
Loading historical data...
Loading historical data...
Loading historical data...
Loading historical data...
Loading historical data...

Documentation

Showing up to 5 results
|